• în România
  • Lista ţărilor
  • Pe 7 zile
  • Temperatura apei
  • Hartă satelitară
  • Meteo pe hartă
  • Widget-uri
  • user-avatar
    Intrare

    Meteo pe oră la Ali Bayramli

    Astăzi, 23 Septembrie, Sâmbătă

    Timp Temperatura Precipitaţii Vânt Presiune Umiditate
    00:00 +27°C° 0 mm 2 m/s 757 mmHg 66%
    01:00 +27°C° 0 mm 2 m/s 757 mmHg 66%
    02:00 +26°C° 0 mm 2 m/s 758 mmHg 65%
    03:00 +26°C° 0 mm 2 m/s 758 mmHg 69%
    04:00 +26°C° 0 mm 2 m/s 758 mmHg 68%
    05:00 +26°C° 0 mm 2 m/s 758 mmHg 67%
    06:00 +26°C° 0 mm 3 m/s 758 mmHg 65%
    07:00 +27°C° 0,1 mm 3 m/s 759 mmHg 58%
    08:00 +29°C° 0,1 mm 4 m/s 759 mmHg 50%
    09:00 +32°C° 0 mm 5 m/s 759 mmHg 42%
    10:00 +33°C° 0 mm 5 m/s 759 mmHg 38%
    11:00 +33°C° 0 mm 6 m/s 759 mmHg 35%
    12:00 +34°C° 0 mm 6 m/s 759 mmHg 31%
    13:00 +34°C° 0 mm 6 m/s 759 mmHg 31%
    14:00 +34°C° 0 mm 7 m/s 759 mmHg 31%
    15:00 +34°C° 0 mm 8 m/s 759 mmHg 32%
    16:00 +33°C° 0 mm 8 m/s 759 mmHg 36%
    17:00 +31°C° 0 mm 8 m/s 759 mmHg 40%
    18:00 +29°C° 0 mm 8 m/s 759 mmHg 45%
    19:00 +28°C° 0 mm 8 m/s 760 mmHg 49%
    20:00 +27°C° 0 mm 8 m/s 760 mmHg 52%
    21:00 +26°C° 0 mm 8 m/s 760 mmHg 56%
    22:00 +26°C° 0 mm 7 m/s 760 mmHg 57%
    23:00 +24°C° 0 mm 7 m/s 760 mmHg 59%

    Mâine, 24 Septembrie, Duminică

    Timp Temperatura Precipitaţii Vânt Presiune Umiditate
    00:00 +24°C° 0 mm 6 m/s 761 mmHg 61%
    01:00 +23°C° 0 mm 6 m/s 761 mmHg 62%
    02:00 +23°C° 0 mm 5 m/s 761 mmHg 64%
    03:00 +23°C° 0 mm 5 m/s 761 mmHg 66%
    04:00 +22°C° 0 mm 4 m/s 761 mmHg 67%
    05:00 +22°C° 0 mm 4 m/s 761 mmHg 69%
    06:00 +22°C° 0 mm 4 m/s 761 mmHg 70%
    07:00 +23°C° 0 mm 4 m/s 762 mmHg 64%
    08:00 +25°C° 0 mm 4 m/s 762 mmHg 57%
    09:00 +27°C° 0 mm 4 m/s 762 mmHg 51%
    10:00 +28°C° 0 mm 4 m/s 762 mmHg 47%
    11:00 +29°C° 0 mm 4 m/s 762 mmHg 43%
    12:00 +30°C° 0 mm 4 m/s 762 mmHg 38%
    13:00 +30°C° 0 mm 5 m/s 762 mmHg 39%
    14:00 +30°C° 0 mm 6 m/s 762 mmHg 39%
    15:00 +30°C° 0 mm 7 m/s 762 mmHg 40%
    16:00 +29°C° 0 mm 7 m/s 762 mmHg 45%
    17:00 +28°C° 0 mm 7 m/s 762 mmHg 51%
    18:00 +26°C° 0 mm 7 m/s 762 mmHg 56%
    19:00 +26°C° 0 mm 6 m/s 762 mmHg 56%
    20:00 +24°C° 0 mm 6 m/s 762 mmHg 56%
    21:00 +25°C° 0 mm 5 m/s 762 mmHg 56%
    22:00 +25°C° 0 mm 4 m/s 762 mmHg 56%
    23:00 +23°C° 0 mm 4 m/s 762 mmHg 56%

    Poimâine, 25 Septembrie, Luni

    Timp Temperatura Precipitaţii Vânt Presiune Umiditate
    00:00 +24°C° 0 mm 3 m/s 762 mmHg 57%
    01:00 +24°C° 0 mm 3 m/s 762 mmHg 58%
    02:00 +22°C° 0 mm 3 m/s 762 mmHg 60%
    03:00 +23°C° 0 mm 2 m/s 762 mmHg 62%
    04:00 +23°C° 0 mm 2 m/s 762 mmHg 63%
    05:00 +21°C° 0 mm 2 m/s 762 mmHg 64%
    06:00 +21°C° 0 mm 2 m/s 762 mmHg 65%
    07:00 +24°C° 0 mm 2 m/s 763 mmHg 59%
    08:00 +25°C° 0 mm 2 m/s 763 mmHg 53%
    09:00 +27°C° 0 mm 2 m/s 763 mmHg 47%
    10:00 +28°C° 0 mm 2 m/s 763 mmHg 43%
    11:00 +29°C° 0 mm 2 m/s 763 mmHg 39%
    12:00 +30°C° 0 mm 2 m/s 763 mmHg 35%
    13:00 +32°C° 0 mm 4 m/s 762 mmHg 33%
    14:00 +32°C° 0 mm 5 m/s 762 mmHg 32%
    15:00 +32°C° 0 mm 7 m/s 762 mmHg 30%
    16:00 +30°C° 0 mm 7 m/s 762 mmHg 34%
    17:00 +29°C° 0 mm 8 m/s 762 mmHg 37%
    18:00 +27°C° 0 mm 9 m/s 763 mmHg 41%
    19:00 +26°C° 0 mm 9 m/s 763 mmHg 44%
    20:00 +26°C° 0 mm 9 m/s 763 mmHg 47%
    21:00 +24°C° 0 mm 8 m/s 764 mmHg 50%
    22:00 +23°C° 0 mm 8 m/s 764 mmHg 52%
    23:00 +23°C° 0 mm 7 m/s 764 mmHg 54%

    26 Septembrie, Marţi

    Timp Temperatura Precipitaţii Vânt Presiune Umiditate
    00:00 +22°C° 0 mm 7 m/s 764 mmHg 56%
    01:00 +22°C° 0 mm 6 m/s 763 mmHg 58%
    02:00 +22°C° 0 mm 6 m/s 763 mmHg 60%
    03:00 +21°C° 0 mm 6 m/s 763 mmHg 62%
    04:00 +21°C° 0 mm 5 m/s 763 mmHg 63%
    05:00 +21°C° 0 mm 5 m/s 763 mmHg 64%
    06:00 +20°C° 0 mm 5 m/s 764 mmHg 65%
    07:00 +21°C° 0 mm 5 m/s 764 mmHg 60%
    08:00 +23°C° 0 mm 5 m/s 764 mmHg 54%
    09:00 +24°C° 0 mm 6 m/s 764 mmHg 49%
    10:00 +24°C° 0 mm 6 m/s 764 mmHg 46%
    11:00 +26°C° 0 mm 6 m/s 764 mmHg 44%
    12:00 +27°C° 0 mm 6 m/s 764 mmHg 41%
    13:00 +27°C° 0 mm 6 m/s 764 mmHg 41%
    14:00 +27°C° 0 mm 7 m/s 763 mmHg 42%
    15:00 +26°C° 0 mm 7 m/s 763 mmHg 42%
    16:00 +24°C° 0 mm 7 m/s 763 mmHg 46%
    17:00 +23°C° 0 mm 7 m/s 764 mmHg 51%
    18:00 +22°C° 0 mm 7 m/s 764 mmHg 55%
    19:00 +22°C° 0 mm 7 m/s 764 mmHg 57%
    20:00 +21°C° 0 mm 6 m/s 764 mmHg 59%
    21:00 +21°C° 0 mm 6 m/s 764 mmHg 61%
    22:00 +21°C° 0 mm 5 m/s 764 mmHg 61%
    23:00 +21°C° 0 mm 5 m/s 764 mmHg 62%

    27 Septembrie, Miercuri

    Timp Temperatura Precipitaţii Vânt Presiune Umiditate
    00:00 +20°C° 0 mm 4 m/s 763 mmHg 62%
    01:00 +20°C° 0 mm 4 m/s 763 mmHg 62%
    02:00 +20°C° 0 mm 3 m/s 763 mmHg 63%
    03:00 +20°C° 0 mm 3 m/s 762 mmHg 63%
    04:00 +20°C° 0 mm 3 m/s 762 mmHg 62%
    05:00 +20°C° 0 mm 3 m/s 762 mmHg 62%
    06:00 +20°C° 0 mm 2 m/s 762 mmHg 61%
    07:00 +21°C° 0 mm 2 m/s 763 mmHg 61%
    08:00 +21°C° 0 mm 3 m/s 763 mmHg 61%
    09:00 +21°C° 0 mm 3 m/s 763 mmHg 60%
    10:00 +21°C° 0 mm 3 m/s 762 mmHg 59%
    11:00 +22°C° 0 mm 4 m/s 762 mmHg 58%
    12:00 +22°C° 0 mm 4 m/s 762 mmHg 57%
    13:00 +23°C° 0 mm 5 m/s 762 mmHg 55%
    14:00 +24°C° 0 mm 6 m/s 762 mmHg 53%
    15:00 +24°C° 0 mm 7 m/s 762 mmHg 51%
    16:00 +23°C° 0 mm 7 m/s 762 mmHg 51%
    17:00 +23°C° 0 mm 8 m/s 762 mmHg 52%
    18:00 +22°C° 0 mm 8 m/s 763 mmHg 53%
    19:00 +22°C° 0 mm 9 m/s 763 mmHg 54%
    20:00 +21°C° 0 mm 9 m/s 764 mmHg 55%
    21:00 +21°C° 0 mm 9 m/s 764 mmHg 57%
    22:00 +21°C° 0,2 mm 9 m/s 764 mmHg 60%
    23:00 +20°C° 0,2 mm 8 m/s 764 mmHg 63%

    28 Septembrie, Joi

    Timp Temperatura Precipitaţii Vânt Presiune Umiditate
    00:00 +20°C° 0,2 mm 8 m/s 764 mmHg 66%
    01:00 +20°C° 0,2 mm 7 m/s 764 mmHg 67%
    02:00 +18°C° 0,2 mm 7 m/s 764 mmHg 69%
    03:00 +18°C° 0,2 mm 7 m/s 764 mmHg 70%
    04:00 +19°C° 0,3 mm 6 m/s 765 mmHg 71%
    05:00 +19°C° 0,3 mm 6 m/s 765 mmHg 72%
    06:00 +19°C° 0,3 mm 6 m/s 765 mmHg 73%
    07:00 +19°C° 0,6 mm 6 m/s 765 mmHg 74%
    08:00 +19°C° 0,6 mm 6 m/s 766 mmHg 75%
    09:00 +19°C° 0,6 mm 6 m/s 766 mmHg 76%
    10:00 +18°C° 0,5 mm 7 m/s 766 mmHg 75%
    11:00 +18°C° 0,5 mm 7 m/s 766 mmHg 74%
    12:00 +18°C° 0,5 mm 7 m/s 766 mmHg 73%
    13:00 +18°C° 0,4 mm 7 m/s 766 mmHg 72%
    14:00 +18°C° 0,4 mm 7 m/s 766 mmHg 70%
    15:00 +18°C° 0,4 mm 7 m/s 766 mmHg 69%
    16:00 +18°C° 0,1 mm 7 m/s 766 mmHg 68%
    17:00 +18°C° 0,1 mm 7 m/s 766 mmHg 67%
    18:00 +18°C° 0,1 mm 7 m/s 766 mmHg 66%
    19:00 +19°C° 0 mm 6 m/s 766 mmHg 65%
    20:00 +19°C° 0 mm 6 m/s 766 mmHg 64%
    21:00 +19°C° 0 mm 6 m/s 766 mmHg 63%
    22:00 +19°C° 0 mm 6 m/s 766 mmHg 63%
    23:00 +19°C° 0 mm 5 m/s 766 mmHg 62%
    Arată mai mult